Sant Hilari Sacalm-Els Cortals (La Selva)





Hora UTC 03:40
Temperatura 2.2 ºC
Humedad 84.0 %
Presión 1021.2 hPa
Pluja 0.0 mm
Velocidad viento 0.0 km/h
Dirección viento NW

Datos diarios 2023-02-06



Hora UTC (invierno +1h; verano +2h)
Temperatura (ºC) Humedad (%) Presión (hPa) Velocidad viento (km/h) Precipitación (mm)
Hora UTC Aire Humedad Presión Vel. Dir. Vel. Max Dir. Intent. máx 5 min.
00:05 2.4 89.0 1021.8 0.0 ESE 0.0 0.0
00:10 2.3 89.0 1021.8 0.0 ESE 0.0 0.0
00:15 2.1 88.0 1021.6 0.0 ESE 0.0 0.0
00:20 2.1 89.0 1021.5 0.0 ESE 0.0 0.0
00:25 2.2 90.0 1021.5 0.0 ESE 0.0 0.0
00:30 2.3 90.0 1021.5 0.0 ESE 0.0 0.0
00:35 2.2 89.0 1021.5 0.0 ESE 0.0 0.0
00:40 2.1 89.0 1021.4 0.0 ESE 0.0 0.0
00:45 1.8 89.0 1021.3 0.0 ESE 0.0 0.0
00:50 1.7 89.0 1021.3 0.0 ESE 0.0 0.0
00:55 1.6 89.0 1021.3 0.0 ESE 0.0 0.0
01:00 1.5 89.0 1021.2 0.0 ESE 0.0 0.0
01:05 1.5 90.0 1021.1 0.0 ESE 0.0 0.0
01:10 1.3 90.0 1021.1 0.0 ESE 0.0 0.0
01:15 1.3 90.0 1020.9 0.0 ESE 0.0 0.0
01:20 1.3 90.0 1020.8 0.0 ESE 0.0 0.0
01:25 1.3 90.0 1020.9 0.0 ESE 0.0 0.0
01:30 1.3 90.0 1020.8 0.0 ESE 0.0 0.0
01:35 1.2 90.0 1020.8 0.0 ESE 0.0 0.0
01:40 1.1 90.0 1020.6 0.0 ESE 0.0 0.0
01:45 1.1 90.0 1020.8 9.7 NNW 9.7 0.0
01:50 1.2 91.0 1020.8 0.0 NNW 9.7 0.0
01:55 1.3 91.0 1020.8 0.0 NNW 8.0 0.0
02:00 1.4 91.0 1020.9 0.0 NNW 0.0 0.0
02:05 1.7 91.0 1021.0 0.0 NW 0.0 0.0
02:10 1.9 91.0 1021.0 0.0 NW 3.2 0.0
02:15 2.1 91.0 1021.0 0.0 NNW 11.3 0.0
02:20 2.3 91.0 1021.0 0.0 NW 11.3 0.0
02:25 2.4 91.0 1021.2 0.0 NW 11.3 0.0
02:30 2.6 91.0 1021.2 0.0 W 11.3 0.0
02:35 2.7 91.0 1021.2 0.0 NNW 6.4 0.0
02:40 2.6 91.0 1021.2 0.0 NW 12.9 0.0
02:45 2.5 91.0 1021.2 0.0 WNW 12.9 0.0
02:50 2.4 90.0 1021.2 0.0 NW 0.0 0.0
02:55 2.3 90.0 1021.1 0.0 WNW 9.7 0.0
03:00 2.2 89.0 1020.9 0.0 NW 11.3 0.0
03:05 2.2 89.0 1020.9 0.0 SW 11.3 0.0
03:10 2.2 88.0 1020.9 0.0 NW 0.0 0.0
03:15 2.2 88.0 1020.9 0.0 NW 0.0 0.0
03:20 2.2 87.0 1021.0 0.0 NNW 3.2 0.0
03:25 2.2 87.0 1021.0 1.6 NNE 3.2 0.0
03:30 2.3 86.0 1021.2 0.0 NNE 3.2 0.0
03:35 2.2 85.0 1021.1 8.0 NNE 16.1 0.0
03:40 2.2 84.0 1021.2 0.0 NW 16.1 0.0
Máxima 2.7 91.0 1021.8 9.7 NNW 16.1 0.0
Mínima 1.1 84.0 1020.6
Total 0.0